Simultaneous Nadir Overpasses (SNOs) Predictions

Prediction of SNOs between AQUA and METOP-C Satellite Orbit:

Table of predicted SNOs for the next 14.0 days since TLE Epoch: 6/29/2024
Index Date (AQUA) Time (AQUA) Lat,Lon (AQUA) SZA (AQUA ) Date (METOP-C) Time (METOP-C) Lat,Lon (METOP-C) SZA (METOP-C ) Distance(km) Time Diff (sec)
1 06/30/2024 17:05:03 -75.41, 102.59 127.77 06/30/2024 17:03:54 -75.44, 102.59 127.73 3.74 69
2 06/30/2024 17:54:27 75.48, -89.95 52.31 06/30/2024 17:54:33 75.46, -90.03 52.29 3.07 6
3 06/30/2024 18:43:58 -75.96, 76.25 127.19 06/30/2024 18:45:05 -75.94, 78.84 127.25 69.84 67
4 07/03/2024 08:26:03 75.42, 52.36 52.44 07/03/2024 08:24:53 75.41, 52.25 52.44 3.42 70
5 07/03/2024 09:15:26 -75.51,-140.24 127.46 07/03/2024 09:15:34 -75.47,-140.22 127.50 3.87 8
6 07/03/2024 10:04:56 75.88, 26.31 52.93 07/03/2024 10:06:04 75.91, 28.49 52.93 59.26 68
7 07/05/2024 23:47:00 -75.43, 2.14 127.30 07/05/2024 23:45:54 -75.42, 2.03 127.31 3.53 66
8 07/06/2024 00:36:24 75.51, 169.56 52.79 07/06/2024 00:36:31 75.52, 169.67 52.80 3.07 7
9 07/06/2024 01:25:56 -76.04, -24.37 126.66 07/06/2024 01:27:02 -76.05, -21.27 126.68 83.17 66
10 07/08/2024 15:07:56 75.43, -48.03 52.99 07/08/2024 15:06:51 75.44, -48.13 53.01 3.39 65
11 07/08/2024 15:57:18 -75.51, 119.40 126.92 07/08/2024 15:57:31 -75.51, 119.42 126.91 1.09 13
12 07/08/2024 16:46:53 76.14, -74.87 53.75 07/08/2024 16:47:57 76.12, -71.26 53.69 96.23 64
13 07/11/2024 06:28:49 -75.45, -98.27 126.65 07/11/2024 06:27:50 -75.48, -98.27 126.62 3.07 59
14 07/11/2024 07:18:12 75.50, 69.25 53.41 07/11/2024 07:18:28 75.52, 69.21 53.43 3.02 16



Historial Predications of SNOs between AQUA and METOP-C
